{"data":{"norad_id":65173,"intl_designator":"2025-174K","name":"HULIANWANG DIGUI-67","alt_names":[],"object_type":"PAYLOAD","status":"ACTIVE","operator":null,"country":"PRC","launch_date":"2025-08-13","launch_site_code":"WSC","launch_vehicle":null,"mission":null,"orbit_class":"UNKNOWN","rcs_meters":null,"size_class":null,"mass_kg":null,"dimensions":null,"purposes":[],"wikipedia_slug":null,"has_3d_model":false,"image_url":null,"decayed_at":null,"tle_current":{"epoch":"2026-09-21T21:15:04.614912Z","epoch_age_seconds":45246,"freshness":"FRESH","line1":"1 65173U 25174K   26264.88547008  .00000041  00000+0  61899-4 0  9992","line2":"2 65173  86.4957 219.2803 0002206  76.0946 284.0434 13.24401273 53550","mean_motion":13.24401273,"eccentricity":0.0002206,"inclination_deg":86.4957,"raan_deg":219.2803,"arg_perigee_deg":76.0946,"mean_anomaly_deg":284.0434,"bstar":6.1899e-5,"rev_number":5355,"period_min":108.72837631288,"perigee_km":1166.2906669192,"apogee_km":1169.6200028573,"semimajor_km":7546.0923348883,"source":"CELESTRAK","updated_at":"2026-09-22T09:00:30.169010Z"}}}